[[{"header":{"parameterUnit":"m.s-1","parameterCategory":1,"la1":30.2991,"la2":30.254,"lo1":-89.0895,"lo2":-89.0444,"dy":0.0017,"dx":0.0017,"nx":28,"ny":28,"refTime":"2023-11-16T09:00:00:Z","depth":0,"parameterNumber":2,"parameterNumberName":"U-component_of_WINDS"},"data":[0,0,0,0,0,0,0,0,0,0,0,0,0,0,0,0,0,0,0,0,0,0,0,0,0,0,0,0,0,0,0,0,0,0,0,0,0,0,0,0,0,0,0,0,0,0,0,0,0,0,0,0,0,0,0,0,0,0,-1.4519,-1.4519,0,-1.4552,-1.4552,-1.4552,-1.4499,-1.4497,-1.4495,-1.4493,-1.4531,-1.4534,-1.4537,0,0,0,0,0,0,0,0,0,0,0,0,0,-1.4414,-1.4417,-1.4519,-1.4519,-1.452,-1.4552,-1.4552,-1.4552,-1.4499,-1.4497,-1.4495,-1.4493,-1.453,-1.4534,-1.4537,0,0,0,0,0,0,0,0,0,0,0,0,0,-1.4455,-1.4417,-1.4519,-1.4497,-1.4495,-1.4551,-1.4552,-1.4553,-1.45,-1.4497,-1.4494,-1.4492,-1.4529,-1.4533,-1.4537,-1.4618,0,0,-1.455,-1.4551,0,0,0,0,0,0,0,0,-1.4453,-1.4459,-1.45,-1.4498,-1.4497,-1.4518,-1.4529,-1.4575,-1.45,-1.4498,-1.4493,-1.449,-1.4529,-1.4533,-1.4546,-1.462,-1.4621,-1.455,-1.4553,-1.4554,-1.4555,0,0,0,0,0,0,0,-1.445,-1.4457,-1.4532,-1.45,-1.4499,-1.4487,-1.4489,-1.4537,-1.4529,-1.4498,-1.4494,-1.4499,-1.4528,-1.4542,-1.4546,-1.4622,-1.455,-1.4554,-1.4556,-1.4558,-1.4766,-1.4768,0,0,0,0,0,0,-1.4449,-1.4455,-1.4531,-1.4533,-1.4467,-1.4491,-1.4494,-1.4514,-1.4528,-1.4528,-1.4501,-1.4496,-1.4536,-1.4541,-1.4547,-1.4644,-1.4554,-1.4558,-1.456,-1.4762,-1.4766,-1.477,0,0,0,0,0,0,-1.4447,-1.4456,-1.453,-1.4493,-1.4501,-1.4496,-1.4519,-1.4516,-1.453,-1.453,-1.4529,-1.4516,-1.4534,-1.4542,-1.4601,-1.4645,-1.456,-1.4564,-1.4759,-1.4764,-1.4768,-1.4838,0,0,0,0,0,0,-1.4444,-1.4456,-1.4486,-1.4494,-1.4503,-1.4581,-1.4521,-1.4519,-1.4537,-1.453,-1.4544,-1.4544,-1.4533,-1.4595,-1.4605,-1.4649,-1.4567,-1.4755,-1.4761,-1.4766,-1.4832,-1.4844,-1.4855,0,0,0,0,0,-1.4441,-1.4504,-1.4487,-1.4497,-1.454,-1.4584,-1.459,-1.4574,-1.454,-1.4571,-1.4571,-1.4544,-1.4638,-1.4602,-1.4612,-1.4658,-1.4752,-1.4759,-1.4766,-1.4826,-1.4842,-1.4855,0,0,0,0,0,0,-1.4502,-1.4505,-1.4486,-1.4554,-1.4569,-1.4575,-1.4613,-1.459,-1.4616,-1.461,-1.459,-1.4594,-1.4658,-1.4663,-1.4623,-1.4738,-1.469,-1.4699,-1.4732,-1.4746,-1.4758,-1.4756,-1.457,0,0,0,0,0,-1.4524,-1.4558,-1.4559,-1.4619,-1.4627,-1.4619,-1.4637,-1.4624,-1.4639,-1.4646,-1.465,-1.4668,-1.4701,-1.4724,-1.4754,-1.4831,-1.4835,-1.4868,-1.488,-1.489,-1.4899,-1.4942,-1.4958,-1.4792,-1.4792,-1.4792,0,0,-1.4568,-1.4574,-1.4597,-1.4631,-1.4641,-1.4679,-1.4625,-1.4666,-1.4694,-1.4652,-1.4709,-1.4713,-1.4731,-1.48,-1.4831,-1.4807,-1.4945,-1.4898,-1.4906,-1.491,-1.4951,-1.4966,-1.498,-1.4797,-1.4796,-1.4795,0,0,-1.467,-1.4676,-1.4728,-1.4739,-1.4754,-1.4749,-1.4761,-1.477,-1.4771,-1.4827,-1.4797,-1.4831,-1.4888,-1.4903,-1.4918,-1.5026,-1.5002,-1.5036,-1.5098,-1.5141,-1.5154,-1.5165,-1.5206,-1.522,-1.5045,-1.5045,-1.5045,0,-1.4724,-1.4778,-1.4757,-1.4801,-1.4818,-1.478,-1.4834,-1.4846,-1.4871,-1.4885,-1.4857,-1.4929,-1.4939,-1.5012,-1.5038,-1.5051,-1.5066,-1.5035,-1.5153,-1.5164,-1.5175,-1.5214,-1.5229,-1.5049,-1.5049,-1.5048,-1.5048,0,-1.4844,-1.4882,-1.4922,-1.4947,-1.4968,-1.5017,-1.5005,-1.5029,-1.5014,-1.5012,-1.507,-1.508,-1.5113,-1.5129,-1.5115,-1.5201,-1.5186,-1.5156,-1.5108,-1.5195,-1.5231,-1.5246,-1.5055,-1.5053,-1.5052,-1.5051,0,0,-1.4986,-1.4999,-1.5014,-1.5026,-1.504,-1.507,-1.5118,-1.5148,-1.5171,-1.5189,-1.523,-1.528,-1.5253,-1.527,-1.5257,-1.5294,-1.5382,-1.526,-1.526,-1.5284,-1.548,-1.5503,-1.5521,-1.5365,-1.5368,-1.537,-1.5479,0,-1.5088,-1.5169,-1.5152,-1.5232,-1.5268,-1.5233,-1.5275,-1.529,-1.5289,-1.532,-1.532,-1.5356,-1.5316,-1.5327,-1.5362,-1.5363,-1.5421,-1.5355,-1.5405,-1.5407,-1.5404,-1.5539,-1.5564,-1.5666,-1.5492,-1.5495,-1.5496,0,-1.5218,-1.5242,-1.5325,-1.5335,-1.535,-1.5387,-1.5415,-1.5445,-1.5461,-1.5458,-1.5478,-1.5458,-1.5507,-1.5457,-1.5526,-1.5481,-1.5501,-1.5505,-1.5509,-1.5515,-1.5459,-1.5551,-1.5698,-1.5715,-1.5518,-1.5516,-1.5515,0,-1.5316,-1.5368,-1.5425,-1.5436,-1.5448,-1.5476,-1.5483,-1.5496,-1.5516,-1.5541,-1.5554,-1.5585,-1.5602,-1.5627,-1.5617,-1.5581,-1.5689,-1.5637,-1.569,-1.5691,-1.5716,-1.5715,-1.5871,-1.5725,-1.5725,-1.5725,-1.5724,0,-1.5433,-1.5486,-1.5469,-1.5505,-1.5564,-1.5544,-1.5604,-1.5607,-1.5619,-1.5656,-1.5627,-1.5662,-1.5646,-1.5681,-1.5673,-1.5733,-1.574,-1.5741,-1.5739,-1.5745,-1.5745,-1.5759,-1.5752,-1.5729,-1.5728,-1.5727,-1.5726,0,-1.5553,-1.5544,-1.5604,-1.5611,-1.5614,-1.5657,-1.5664,-1.5698,-1.5694,-1.5741,-1.5751,-1.5747,-1.5786,-1.5778,-1.5822,-1.5817,-1.5892,-1.588,-1.5887,-1.5885,-1.5939,-1.5935,-1.6111,-1.6135,-1.5971,-1.5973,-1.5974,0,-1.563,-1.567,-1.5681,-1.5702,-1.5711,-1.5747,-1.5767,-1.575,-1.5773,-1.5795,-1.5827,-1.5864,-1.5892,-1.5958,-1.596,-1.5993,-1.5983,-1.6043,-1.5988,-1.5994,-1.5987,-1.5986,-1.5991,-1.6054,-1.6056,-1.6058,-1.6059,0,-1.5767,-1.5761,-1.579,-1.5819,-1.5844,-1.5866,-1.5885,-1.5905,-1.589,-1.5918,-1.5957,-1.5979,-1.6023,-1.6061,-1.6093,-1.6101,-1.6079,-1.6076,-1.609,-1.6098,-1.6101,-1.6103,-1.5919,-1.6072,-1.6071,-1.607,-1.6069,-1.6069,-1.5869,-1.5904,-1.5917,-1.5952,-1.5964,-1.5983,-1.6016,-1.6017,-1.6049,-1.6083,-1.6071,-1.6117,-1.6134,-1.6174,-1.6186,-1.6223,-1.6201,-1.6221,-1.6227,-1.6233,-1.6241,-1.6093,-1.6228,-1.6228,-1.6228,-1.6227,-1.6227,0,-1.6007,-1.6014,-1.6046,-1.6074,-1.6101,-1.6075,-1.6096,-1.6122,-1.6162,-1.6179,-1.6207,-1.6254,-1.629,-1.6295,-1.633,-1.6359,-1.635,-1.6369,-1.6368,-1.6371,-1.6257,-1.6242,-1.6376,-1.6376,-1.6376,-1.6376,-1.6376,-1.6376,-1.6082,-1.614,-1.6135,-1.6199,-1.6206,-1.625,-1.6264,-1.6282,-1.6296,-1.6349,-1.6378,-1.638,-1.6393,-1.6429,-1.6463,-1.6463,-1.6479,-1.6503,-1.65,-1.6394,-1.6379,-1.6365,-1.6351,-1.6506,-1.6506,-1.6611,-1.6612,-1.6613]},{"header":{"parameterUnit":"m.s-1","parameterCategory":1,"la1":30.2991,"la2":30.254,"lo1":-89.0895,"lo2":-89.0444,"dy":0.0017,"dx":0.0017,"nx":28,"ny":28,"refTime":"2023-11-16T09:00:00:Z","depth":0,"parameterNumber":3,"parameterNumberName":"V-component_of_WINDS"},"data":[0,0,0,0,0,0,0,0,0,0,0,0,0,0,0,0,0,0,0,0,0,0,0,0,0,0,0,0,0,0,0,0,0,0,0,0,0,0,0,0,0,0,0,0,0,0,0,0,0,0,0,0,0,0,0,0,0,0,-2.4863,-2.4862,0,-2.4817,-2.4816,-2.4816,-2.4751,-2.475,-2.4749,-2.4748,-2.4701,-2.47,-2.47,0,0,0,0,0,0,0,0,0,0,0,0,0,-2.4895,-2.4895,-2.4863,-2.4862,-2.4862,-2.4817,-2.4816,-2.4816,-2.4751,-2.475,-2.4749,-2.4747,-2.4701,-2.47,-2.47,0,0,0,0,0,0,0,0,0,0,0,0,0,-2.4868,-2.4895,-2.4863,-2.4824,-2.482,-2.4817,-2.4816,-2.4816,-2.4752,-2.475,-2.4748,-2.4747,-2.4701,-2.47,-2.47,-2.4731,0,0,-2.4699,-2.4699,0,0,0,0,0,0,0,0,-2.487,-2.4867,-2.4831,-2.4827,-2.4823,-2.4788,-2.481,-2.4787,-2.4752,-2.4778,-2.4748,-2.4746,-2.4731,-2.4728,-2.4723,-2.4729,-2.4727,-2.4699,-2.4699,-2.4699,-2.4698,0,0,0,0,0,0,0,-2.4872,-2.4869,-2.4845,-2.483,-2.4825,-2.4809,-2.4804,-2.4806,-2.4764,-2.4775,-2.4771,-2.4766,-2.4728,-2.4724,-2.4721,-2.4726,-2.4699,-2.4699,-2.4698,-2.4698,-2.4755,-2.4757,0,0,0,0,0,0,-2.4879,-2.4871,-2.4846,-2.4843,-2.4843,-2.481,-2.4804,-2.4801,-2.4764,-2.4757,-2.4767,-2.4763,-2.4725,-2.4722,-2.472,-2.4753,-2.4699,-2.4698,-2.4698,-2.4753,-2.4755,-2.4757,0,0,0,0,0,0,-2.488,-2.4878,-2.4848,-2.4856,-2.4851,-2.4811,-2.4809,-2.4801,-2.4796,-2.4758,-2.475,-2.477,-2.4724,-2.472,-2.4729,-2.4751,-2.4698,-2.4698,-2.4751,-2.4754,-2.4756,-2.4822,0,0,0,0,0,0,-2.4882,-2.4879,-2.489,-2.4856,-2.4851,-2.4858,-2.481,-2.4801,-2.4795,-2.4789,-2.4758,-2.4752,-2.4722,-2.473,-2.4728,-2.4749,-2.4698,-2.4749,-2.4753,-2.4756,-2.4817,-2.4826,-2.4834,0,0,0,0,0,-2.4883,-2.491,-2.4891,-2.4888,-2.4864,-2.486,-2.4856,-2.4822,-2.4797,-2.4809,-2.4784,-2.4753,-2.4749,-2.4731,-2.4729,-2.4751,-2.4748,-2.4752,-2.4755,-2.4814,-2.4825,-2.4834,0,0,0,0,0,0,-2.4947,-2.4905,-2.4883,-2.49,-2.4884,-2.4849,-2.4862,-2.4834,-2.4824,-2.4819,-2.4776,-2.477,-2.4784,-2.4768,-2.4749,-2.4779,-2.4743,-2.4747,-2.4789,-2.4798,-2.4806,-2.481,-2.4697,0,0,0,0,0,-2.4963,-2.4963,-2.4926,-2.4945,-2.4938,-2.4902,-2.4898,-2.4873,-2.4854,-2.4847,-2.4824,-2.4807,-2.4801,-2.4799,-2.4792,-2.4815,-2.4807,-2.4829,-2.4837,-2.4844,-2.4847,-2.4858,-2.4867,-2.477,-2.477,-2.477,0,0,-2.4997,-2.4974,-2.4976,-2.4958,-2.4942,-2.4943,-2.4896,-2.4899,-2.4899,-2.4848,-2.4854,-2.4837,-2.4815,-2.4831,-2.4837,-2.4818,-2.4873,-2.4849,-2.4854,-2.4854,-2.4863,-2.4873,-2.4881,-2.4773,-2.4772,-2.4772,0,0,-2.5058,-2.5041,-2.5054,-2.504,-2.5017,-2.4992,-2.4996,-2.4965,-2.4951,-2.4957,-2.4918,-2.4918,-2.491,-2.4896,-2.4888,-2.4945,-2.4915,-2.4944,-2.4987,-2.4998,-2.5005,-2.5012,-2.5032,-2.504,-2.4948,-2.4948,-2.4948,0,-2.5102,-2.5102,-2.5065,-2.5071,-2.5064,-2.5017,-2.503,-2.5018,-2.4994,-2.499,-2.497,-2.4959,-2.4941,-2.4953,-2.4967,-2.4962,-2.4965,-2.4947,-2.5007,-2.5014,-2.5019,-2.5038,-2.5046,-2.4951,-2.4951,-2.4951,-2.495,0,-2.5158,-2.5159,-2.5173,-2.5151,-2.5146,-2.5155,-2.5119,-2.5118,-2.5094,-2.5071,-2.5078,-2.5055,-2.5043,-2.5044,-2.502,-2.5053,-2.5042,-2.5015,-2.4979,-2.5033,-2.505,-2.5057,-2.4957,-2.4955,-2.4954,-2.4953,0,0,-2.5259,-2.5216,-2.5222,-2.5212,-2.5183,-2.5183,-2.5191,-2.5179,-2.5179,-2.5164,-2.5169,-2.5164,-2.5139,-2.513,-2.5104,-2.5114,-2.516,-2.5085,-2.5084,-2.51,-2.5195,-2.5216,-2.5225,-2.514,-2.5142,-2.5143,-2.5197,0,-2.5314,-2.5325,-2.5292,-2.5311,-2.5311,-2.5267,-2.5273,-2.5257,-2.5236,-2.5233,-2.521,-2.5207,-2.5175,-2.5169,-2.5177,-2.5153,-2.5179,-2.5148,-2.5145,-2.5145,-2.5152,-2.5234,-2.5255,-2.5308,-2.5204,-2.5205,-2.5205,0,-2.5381,-2.537,-2.5389,-2.536,-2.5359,-2.5365,-2.5352,-2.535,-2.533,-2.5314,-2.5305,-2.5274,-2.528,-2.5245,-2.5252,-2.5232,-2.5229,-2.5217,-2.5218,-2.5217,-2.5179,-2.5234,-2.5324,-2.5332,-2.5216,-2.5215,-2.5214,0,-2.5453,-2.5442,-2.5453,-2.5445,-2.5411,-2.5417,-2.5403,-2.5381,-2.5376,-2.5365,-2.5361,-2.535,-2.5345,-2.5337,-2.5305,-2.5282,-2.5315,-2.5278,-2.5303,-2.5304,-2.5312,-2.5312,-2.5402,-2.5309,-2.5309,-2.5309,-2.5309,0,-2.5518,-2.5532,-2.5484,-2.5491,-2.5505,-2.5466,-2.5481,-2.5463,-2.5444,-2.5446,-2.5407,-2.541,-2.5367,-2.5365,-2.534,-2.5349,-2.5347,-2.5334,-2.5328,-2.5338,-2.534,-2.5335,-2.5331,-2.5311,-2.5311,-2.531,-2.531,0,-2.5601,-2.5569,-2.5578,-2.5545,-2.5537,-2.5549,-2.552,-2.5525,-2.5502,-2.5505,-2.5504,-2.5468,-2.5463,-2.543,-2.5419,-2.5402,-2.5421,-2.5407,-2.5428,-2.5423,-2.545,-2.5448,-2.554,-2.5551,-2.5452,-2.5453,-2.5454,0,-2.5645,-2.5654,-2.5623,-2.5621,-2.5609,-2.5607,-2.5602,-2.5565,-2.5561,-2.554,-2.5547,-2.554,-2.5532,-2.5527,-2.55,-2.549,-2.5476,-2.5509,-2.5474,-2.5485,-2.5477,-2.5477,-2.5477,-2.5516,-2.5518,-2.5519,-2.552,0,-2.5727,-2.5711,-2.5705,-2.5694,-2.5689,-2.5679,-2.5666,-2.5667,-2.5626,-2.5624,-2.5619,-2.5613,-2.5601,-2.5594,-2.558,-2.5566,-2.5536,-2.5531,-2.5536,-2.5547,-2.5559,-2.5553,-2.5448,-2.5529,-2.5528,-2.5527,-2.5527,-2.5526,-2.5791,-2.5798,-2.5777,-2.5772,-2.5758,-2.5747,-2.575,-2.5727,-2.5723,-2.571,-2.5688,-2.5687,-2.5667,-2.5645,-2.5633,-2.5632,-2.5614,-2.5622,-2.5624,-2.5626,-2.5632,-2.5559,-2.5629,-2.5629,-2.5628,-2.5628,-2.5628,0,-2.5871,-2.5856,-2.5851,-2.5835,-2.5831,-2.5804,-2.5788,-2.5787,-2.5786,-2.577,-2.5763,-2.5757,-2.5751,-2.5723,-2.5714,-2.5718,-2.5704,-2.5716,-2.5716,-2.5713,-2.5648,-2.5644,-2.5728,-2.5728,-2.5728,-2.5728,-2.5728,-2.5728,-2.5913,-2.5922,-2.5904,-2.5906,-2.589,-2.5889,-2.5882,-2.5872,-2.5859,-2.5855,-2.5849,-2.5831,-2.5811,-2.5799,-2.5792,-2.5784,-2.5782,-2.58,-2.5787,-2.5727,-2.5717,-2.5708,-2.5705,-2.5799,-2.58,-2.5852,-2.5853,-2.5853]}]]